QPF
0.02 0.01 0.01 0.01 0.01 0.02 0.03 0.02 0.02 0.01 0.01 0.01 0.01 0.02 0.02 0.02 0.02 0.01 0.01 0.01 0.02 0.04 0.05 0.05 0.04 0.04 0.06 0.08 0.10 0.08 0.06 0.04 0.04 0.05 0.05 0.05 0.05 0.06 0.06 0.06 0.05 0.06 0.06
0.04 0.02 0.01 0.01 0.01 0.01 0.03 0.03 0.02 0.02 0.01 0.01 0.01 0.02 0.03 0.02 0.02 0.01 0.01 0.01 0.01 0.02 0.03 0.04 0.03 0.04 0.05 0.06 0.07 0.07 0.06 0.05 0.04 0.05 0.05 0.04 0.04 0.05 0.06 0.06 0.05 0.05 0.06
0.05 0.04 0.02 0.02 0.01 0.01 0.01 0.03 0.03 0.02 0.02 0.02 0.02 0.02 0.03 0.03 0.03 0.02 0.01 0.01 0.01 0.02 0.02 0.03 0.03 0.03 0.05 0.05 0.07 0.07 0.06 0.05 0.05 0.04 0.05 0.04 0.04 0.04 0.05 0.05 0.05 0.05 0.05
0.04 0.04 0.04 0.03 0.03 0.03 0.01 0.02 0.03 0.03 0.02 0.03 0.03 0.02 0.02 0.03 0.04 0.04 0.03 0.02 0.01 0.02 0.03 0.03 0.03 0.03 0.04 0.06 0.07 0.08 0.08 0.06 0.06 0.04 0.03 0.03 0.02 0.03 0.03 0.04 0.05 0.07 0.06
0.03 0.03 0.03 0.03 0.03 0.03 0.03 0.02 0.03 0.03 0.03 0.03 0.04 0.03 0.02 0.02 0.03 0.04 0.04 0.04 0.03 0.02 0.03 0.03 0.03 0.03 0.04 0.05 0.07 0.08 0.09 0.07 0.06 0.05 0.03 0.02 0.02 0.02 0.02 0.03 0.03 0.05 0.06
0.02 0.03 0.02 0.02 0.02 0.02 0.02 0.02 0.01 0.02 0.03 0.03 0.04 0.04 0.03 0.02 0.01 0.02 0.03 0.04 0.04 0.03 0.02 0.02 0.03 0.03 0.04 0.04 0.06 0.08 0.09 0.09 0.07 0.05 0.04 0.03 0.03 0.02 0.02 0.03 0.03 0.04 0.05
0.01 0.02 0.03 0.02 0.02 0.01 0.01 0.01 0.02 0.01 0.01 0.02 0.03 0.04 0.04 0.03 0.01 0.01 0.02 0.02 0.04 0.04 0.03 0.02 0.02 0.02 0.03 0.04 0.04 0.05 0.08 0.11 0.10 0.07 0.05 0.03 0.03 0.03 0.03 0.04 0.04 0.04 0.04
0.01 0.01 0.02 0.02 0.02 0.02 0.01 0.02 0.02 0.02 0.01 0.01 0.02 0.03 0.03 0.03 0.02 0.01 0.01 0.01 0.02 0.03 0.04 0.04 0.03 0.02 0.02 0.02 0.03 0.04 0.05 0.07 0.12 0.11 0.07 0.04 0.03 0.03 0.04 0.04 0.05 0.05 0.05
0.00 0.01 0.01 0.02 0.02 0.02 0.03 0.02 0.03 0.03 0.02 0.01 0.01 0.02 0.02 0.02 0.02 0.02 0.01 0.01 0.01 0.01 0.02 0.04 0.04 0.04 0.03 0.03 0.03 0.04 0.04 0.04 0.07 0.09 0.10 0.07 0.04 0.04 0.05 0.06 0.06 0.06 0.06
0.00 0.00 0.01 0.01 0.01 0.02 0.02 0.02 0.02 0.03 0.03 0.02 0.02 0.02 0.02 0.02 0.02 0.03 0.03 0.02 0.02 0.02 0.02 0.03 0.03 0.03 0.03 0.04 0.04 0.04 0.04 0.03 0.04 0.06 0.09 0.09 0.07 0.06 0.07 0.07 0.06 0.06 0.07
0.01 0.01 0.01 0.01 0.01 0.01 0.02 0.02 0.02 0.02 0.03 0.03 0.03 0.02 0.03 0.02 0.02 0.02 0.02 0.02 0.03 0.03 0.03 0.03 0.04 0.03 0.03 0.03 0.03 0.04 0.04 0.03 0.02 0.05 0.09 0.10 0.09 0.08 0.07 0.07 0.07 0.07 0.08
0.01 0.01 0.01 0.01 0.01 0.01 0.01 0.01 0.02 0.02 0.02 0.03 0.03 0.03 0.03 0.03 0.02 0.02 0.03 0.02 0.03 0.03 0.03 0.03 0.04 0.04 0.03 0.02 0.03 0.04 0.04 0.03 0.02 0.03 0.05 0.08 0.11 0.11 0.10 0.08 0.08 0.07 0.08
0.01 0.01 0.01 0.01 0.01 0.01 0.01 0.01 0.01 0.02 0.02 0.02 0.02 0.02 0.03 0.03 0.03 0.02 0.03 0.03 0.04 0.03 0.03 0.04 0.04 0.04 0.04 0.03 0.03 0.04 0.04 0.04 0.03 0.03 0.04 0.06 0.08 0.09 0.09 0.08 0.09 0.10 0.09
0.01 0.01 0.01 0.01 0.01 0.01 0.01 0.00 0.00 0.00 0.01 0.01 0.01 0.01 0.01 0.02 0.02 0.02 0.03 0.04 0.05 0.05 0.04 0.04 0.03 0.04 0.05 0.05 0.04 0.05 0.04 0.04 0.04 0.04 0.05 0.05 0.05 0.05 0.05 0.05 0.06 0.09 0.10
0.01 0.01 0.01 0.01 0.01 0.01 0.01 0.01 0.00 0.00 0.00 0.00 0.01 0.01 0.01 0.01 0.01 0.01 0.02 0.04 0.06 0.06 0.05 0.04 0.03 0.03 0.04 0.05 0.06 0.04 0.03 0.03 0.03 0.03 0.03 0.03 0.04 0.04 0.04 0.03 0.03 0.06 0.09
0.01 0.01 0.01 0.01 0.01 0.01 0.01 0.01 0.00 0.00 0.01 0.00 0.00 0.00 0.01 0.01 0.01 0.01 0.01 0.03 0.04 0.05 0.06 0.04 0.03 0.03 0.03 0.04 0.05 0.04 0.03 0.03 0.03 0.02 0.03 0.03 0.03 0.05 0.04 0.03 0.02 0.04 0.07
0.01 0.00 0.00 0.01 0.00 0.01 0.01 0.01 0.01 0.00 0.01 0.01 0.01 0.00 0.01 0.01 0.02 0.01 0.01 0.02 0.03 0.04 0.05 0.04 0.03 0.03 0.04 0.04 0.04 0.04 0.03 0.02 0.02 0.02 0.02 0.03 0.03 0.04 0.04 0.04 0.03 0.03 0.05
0.01 0.01 0.01 0.00 0.00 0.00 0.01 0.01 0.01 0.00 0.01 0.01 0.01 0.01 0.01 0.01 0.01 0.01 0.01 0.02 0.03 0.03 0.03 0.04 0.03 0.04 0.05 0.05 0.04 0.03 0.03 0.02 0.02 0.02 0.02 0.02 0.02 0.03 0.03 0.03 0.03 0.03 0.03
0.01 0.01 0.01 0.01 0.00 0.00 0.01 0.01 0.01 0.01 0.01 0.01 0.01 0.01 0.01 0.01 0.01 0.01 0.01 0.02 0.03 0.03 0.03 0.03 0.03 0.04 0.04 0.05 0.06 0.04 0.03 0.03 0.03 0.03 0.02 0.02 0.02 0.03 0.03 0.03 0.04 0.04 0.03
0.01 0.01 0.01 0.01 0.01 0.00 0.00 0.01 0.01 0.01 0.01 0.01 0.01 0.01 0.01 0.01 0.01 0.01 0.02 0.02 0.03 0.04 0.03 0.03 0.04 0.04 0.05 0.04 0.06 0.06 0.04 0.04 0.03 0.03 0.03 0.03 0.02 0.03 0.03 0.03 0.04 0.04 0.04
0.01 0.01 0.01 0.01 0.01 0.01 0.01 0.01 0.03 0.03 0.02 0.01 0.01 0.01 0.01 0.01 0.01 0.01 0.02 0.03 0.03 0.04 0.04 0.04 0.04 0.05 0.05 0.05 0.06 0.05 0.04 0.04 0.03 0.02 0.03 0.03 0.03 0.03 0.03 0.03 0.04 0.04 0.04
0.01 0.02 0.02 0.01 0.01 0.01 0.01 0.02 0.03 0.03 0.02 0.02 0.02 0.02 0.02 0.02 0.01 0.01 0.02 0.03 0.03 0.05 0.06 0.06 0.06 0.05 0.04 0.04 0.04 0.05 0.04 0.04 0.04 0.03 0.03 0.03 0.03 0.03 0.03 0.03 0.04 0.05 0.04
0.01 0.02 0.02 0.02 0.01 0.01 0.01 0.02 0.03 0.02 0.02 0.02 0.02 0.02 0.02 0.02 0.02 0.02 0.02 0.02 0.03 0.03 0.05 0.06 0.07 0.05 0.03 0.02 0.03 0.04 0.04 0.04 0.04 0.04 0.04 0.04 0.03 0.03 0.03 0.02 0.04 0.05 0.04
0.01 0.01 0.02 0.01 0.01 0.02 0.02 0.02 0.03 0.02 0.01 0.01 0.02 0.02 0.02 0.02 0.02 0.03 0.03 0.03 0.03 0.03 0.04 0.05 0.05 0.05 0.04 0.03 0.04 0.05 0.05 0.05 0.05 0.04 0.05 0.06 0.05 0.04 0.04 0.03 0.04 0.06 0.05
0.01 0.01 0.01 0.01 0.02 0.02 0.02 0.02 0.02 0.02 0.01 0.01 0.01 0.02 0.02 0.02 0.02 0.03 0.04 0.04 0.02 0.02 0.03 0.04 0.05 0.05 0.05 0.05 0.06 0.07 0.08 0.08 0.08 0.07 0.06 0.06 0.05 0.05 0.05 0.05 0.05 0.07 0.06
0.01 0.01 0.01 0.01 0.01 0.02 0.03 0.03 0.03 0.02 0.02 0.02 0.02 0.02 0.02 0.02 0.03 0.03 0.04 0.04 0.03 0.03 0.03 0.03 0.04 0.04 0.05 0.06 0.06 0.07 0.08 0.09 0.08 0.07 0.06 0.06 0.05 0.05 0.07 0.06 0.06 0.06 0.06
MSLP
1027.76 1027.70 1027.57 1027.37 1027.11 1026.83 1026.54 1026.27 1026.04 1025.85 1025.71 1025.62 1025.56 1025.52 1025.48 1025.41 1025.31 1025.16 1024.94 1024.66 1024.32 1023.94 1023.55 1023.15 1022.77 1022.42 1022.11 1021.84 1021.59 1021.35 1021.11 1020.86 1020.58 1020.28 1019.95 1019.60 1019.25 1018.89 1018.54 1018.22 1017.93 1017.68 1017.49
1028.10 1028.04 1027.92 1027.74 1027.52 1027.28 1027.03 1026.80 1026.60 1026.43 1026.31 1026.24 1026.20 1026.18 1026.16 1026.14 1026.08 1025.98 1025.82 1025.60 1025.32 1025.00 1024.63 1024.25 1023.87 1023.50 1023.15 1022.81 1022.50 1022.20 1021.89 1021.59 1021.26 1020.92 1020.55 1020.17 1019.77 1019.36 1018.94 1018.55 1018.18 1017.85 1017.59
1028.35 1028.30 1028.20 1028.07 1027.91 1027.73 1027.54 1027.36 1027.20 1027.07 1026.97 1026.91 1026.88 1026.87 1026.87 1026.87 1026.84 1026.78 1026.66 1026.49 1026.26 1025.97 1025.65 1025.29 1024.91 1024.53 1024.14 1023.77 1023.40 1023.03 1022.67 1022.31 1021.93 1021.55 1021.15 1020.73 1020.28 1019.83 1019.36 1018.89 1018.45 1018.05 1017.72
1028.56 1028.53 1028.47 1028.40 1028.31 1028.20 1028.09 1027.97 1027.86 1027.77 1027.69 1027.63 1027.60 1027.59 1027.59 1027.60 1027.58 1027.53 1027.44 1027.30 1027.10 1026.85 1026.56 1026.22 1025.86 1025.48 1025.08 1024.68 1024.27 1023.86 1023.45 1023.03 1022.62 1022.19 1021.75 1021.29 1020.82 1020.32 1019.81 1019.29 1018.79 1018.32 1017.91
1028.79 1028.78 1028.77 1028.77 1028.76 1028.73 1028.69 1028.64 1028.57 1028.50 1028.43 1028.37 1028.33 1028.31 1028.30 1028.30 1028.28 1028.23 1028.15 1028.03 1027.85 1027.62 1027.36 1027.05 1026.71 1026.34 1025.95 1025.54 1025.12 1024.68 1024.23 1023.78 1023.32 1022.86 1022.39 1021.90 1021.40 1020.87 1020.33 1019.77 1019.21 1018.69 1018.21
1029.09 1029.10 1029.15 1029.20 1029.26 1029.31 1029.33 1029.32 1029.29 1029.23 1029.16 1029.09 1029.04 1029.01 1028.98 1028.96 1028.94 1028.89 1028.81 1028.68 1028.51 1028.30 1028.06 1027.77 1027.46 1027.12 1026.75 1026.35 1025.93 1025.48 1025.01 1024.54 1024.05 1023.56 1023.06 1022.56 1022.04 1021.50 1020.94 1020.35 1019.77 1019.19 1018.65
1029.44 1029.49 1029.57 1029.68 1029.80 1029.90 1029.97 1029.99 1029.97 1029.92 1029.84 1029.77 1029.71 1029.66 1029.63 1029.60 1029.57 1029.51 1029.42 1029.30 1029.13 1028.93 1028.69 1028.43 1028.14 1027.82 1027.48 1027.11 1026.70 1026.25 1025.78 1025.29 1024.79 1024.28 1023.77 1023.25 1022.73 1022.19 1021.63 1021.05 1020.45 1019.85 1019.27
1029.84 1029.91 1030.03 1030.18 1030.33 1030.47 1030.56 1030.60 1030.58 1030.53 1030.45 1030.38 1030.32 1030.28 1030.25 1030.23 1030.20 1030.14 1030.04 1029.91 1029.73 1029.52 1029.28 1029.03 1028.76 1028.46 1028.14 1027.79 1027.40 1026.97 1026.50 1026.01 1025.50 1024.99 1024.47 1023.97 1023.45 1022.93 1022.39 1021.82 1021.23 1020.63 1020.03
1030.23 1030.33 1030.47 1030.65 1030.83 1030.97 1031.08 1031.12 1031.11 1031.06 1030.99 1030.93 1030.88 1030.86 1030.85 1030.85 1030.83 1030.78 1030.68 1030.53 1030.33 1030.10 1029.85 1029.59 1029.32 1029.04 1028.73 1028.40 1028.02 1027.60 1027.14 1026.65 1026.14 1025.63 1025.13 1024.64 1024.15 1023.66 1023.16 1022.63 1022.07 1021.48 1020.89
1030.58 1030.70 1030.87 1031.06 1031.25 1031.41 1031.51 1031.56 1031.55 1031.51 1031.46 1031.42 1031.41 1031.42 1031.45 1031.48 1031.48 1031.43 1031.33 1031.16 1030.94 1030.68 1030.40 1030.11 1029.83 1029.54 1029.23 1028.90 1028.54 1028.13 1027.67 1027.18 1026.68 1026.18 1025.69 1025.22 1024.76 1024.32 1023.86 1023.38 1022.87 1022.33 1021.76
1030.84 1030.99 1031.18 1031.39 1031.59 1031.76 1031.87 1031.92 1031.92 1031.89 1031.87 1031.86 1031.89 1031.95 1032.02 1032.08 1032.10 1032.06 1031.95 1031.76 1031.51 1031.21 1030.90 1030.58 1030.27 1029.96 1029.64 1029.31 1028.94 1028.53 1028.08 1027.59 1027.09 1026.60 1026.12 1025.67 1025.26 1024.86 1024.46 1024.04 1023.59 1023.10 1022.59
1030.99 1031.19 1031.41 1031.64 1031.86 1032.03 1032.15 1032.21 1032.22 1032.22 1032.22 1032.25 1032.32 1032.42 1032.53 1032.62 1032.66 1032.62 1032.49 1032.28 1031.99 1031.66 1031.31 1030.96 1030.62 1030.29 1029.96 1029.62 1029.24 1028.83 1028.37 1027.88 1027.38 1026.89 1026.43 1026.00 1025.62 1025.26 1024.91 1024.56 1024.17 1023.75 1023.29
1031.04 1031.28 1031.54 1031.80 1032.04 1032.23 1032.35 1032.43 1032.46 1032.48 1032.51 1032.57 1032.67 1032.79 1032.93 1033.03 1033.07 1033.03 1032.88 1032.65 1032.33 1031.97 1031.59 1031.22 1030.86 1030.52 1030.18 1029.83 1029.45 1029.04 1028.57 1028.08 1027.58 1027.09 1026.63 1026.22 1025.85 1025.53 1025.23 1024.93 1024.61 1024.25 1023.86
1030.99 1031.28 1031.59 1031.88 1032.14 1032.34 1032.48 1032.57 1032.61 1032.64 1032.69 1032.77 1032.88 1033.02 1033.15 1033.25 1033.29 1033.23 1033.07 1032.81 1032.49 1032.11 1031.72 1031.34 1030.98 1030.65 1030.31 1029.97 1029.60 1029.18 1028.72 1028.23 1027.72 1027.22 1026.77 1026.36 1026.01 1025.71 1025.44 1025.19 1024.92 1024.62 1024.28
1030.86 1031.21 1031.55 1031.88 1032.15 1032.37 1032.52 1032.61 1032.66 1032.69 1032.74 1032.82 1032.93 1033.05 1033.18 1033.26 1033.28 1033.20 1033.02 1032.76 1032.43 1032.06 1031.68 1031.32 1030.98 1030.67 1030.36 1030.04 1029.69 1029.28 1028.83 1028.34 1027.83 1027.33 1026.87 1026.46 1026.12 1025.83 1025.58 1025.36 1025.12 1024.87 1024.58
1030.67 1031.07 1031.45 1031.79 1032.08 1032.30 1032.45 1032.54 1032.58 1032.61 1032.64 1032.70 1032.79 1032.89 1032.99 1033.05 1033.04 1032.94 1032.75 1032.49 1032.17 1031.82 1031.47 1031.15 1030.86 1030.59 1030.32 1030.04 1029.72 1029.34 1028.91 1028.43 1027.92 1027.43 1026.96 1026.55 1026.21 1025.92 1025.69 1025.48 1025.27 1025.04 1024.79
1030.45 1030.87 1031.28 1031.63 1031.93 1032.14 1032.28 1032.35 1032.37 1032.38 1032.40 1032.43 1032.49 1032.57 1032.63 1032.65 1032.62 1032.50 1032.31 1032.05 1031.74 1031.43 1031.12 1030.85 1030.61 1030.39 1030.18 1029.94 1029.66 1029.33 1028.92 1028.47 1027.98 1027.49 1027.04 1026.63 1026.28 1026.00 1025.76 1025.56 1025.37 1025.16 1024.93
1030.20 1030.65 1031.06 1031.42 1031.70 1031.90 1032.02 1032.07 1032.07 1032.05 1032.05 1032.05 1032.09 1032.13 1032.16 1032.15 1032.09 1031.96 1031.75 1031.50 1031.21 1030.93 1030.66 1030.43 1030.24 1030.07 1029.91 1029.73 1029.50 1029.20 1028.84 1028.42 1027.96 1027.50 1027.06 1026.66 1026.32 1026.04 1025.81 1025.61 1025.41 1025.22 1025.00
1029.95 1030.41 1030.83 1031.18 1031.44 1031.62 1031.71 1031.74 1031.72 1031.68 1031.65 1031.63 1031.64 1031.65 1031.65 1031.62 1031.54 1031.38 1031.17 1030.91 1030.63 1030.36 1030.12 1029.92 1029.76 1029.63 1029.51 1029.37 1029.18 1028.93 1028.62 1028.24 1027.83 1027.40 1026.99 1026.61 1026.29 1026.02 1025.79 1025.59 1025.40 1025.20 1024.99
1029.72 1030.19 1030.61 1030.94 1031.19 1031.34 1031.40 1031.40 1031.36 1031.30 1031.25 1031.22 1031.21 1031.20 1031.18 1031.12 1031.01 1030.83 1030.60 1030.33 1030.04 1029.76 1029.52 1029.32 1029.17 1029.06 1028.96 1028.85 1028.70 1028.49 1028.23 1027.90 1027.54 1027.16 1026.79 1026.45 1026.15 1025.90 1025.68 1025.48 1025.30 1025.10 1024.89
1029.54 1030.02 1030.43 1030.75 1030.97 1031.10 1031.13 1031.11 1031.04 1030.97 1030.90 1030.86 1030.83 1030.81 1030.77 1030.68 1030.54 1030.33 1030.06 1029.76 1029.44 1029.13 1028.86 1028.65 1028.49 1028.37 1028.27 1028.18 1028.05 1027.89 1027.67 1027.40 1027.10 1026.77 1026.45 1026.16 1025.89 1025.66 1025.46 1025.27 1025.09 1024.89 1024.68
1029.44 1029.93 1030.33 1030.64 1030.83 1030.92 1030.93 1030.88 1030.79 1030.69 1030.61 1030.56 1030.51 1030.47 1030.40 1030.28 1030.10 1029.85 1029.55 1029.20 1028.83 1028.48 1028.17 1027.92 1027.72 1027.59 1027.48 1027.39 1027.29 1027.15 1026.98 1026.77 1026.52 1026.26 1026.00 1025.75 1025.52 1025.32 1025.13 1024.96 1024.78 1024.59 1024.38
1029.43 1029.92 1030.32 1030.60 1030.77 1030.82 1030.79 1030.71 1030.59 1030.47 1030.37 1030.29 1030.22 1030.15 1030.05 1029.89 1029.68 1029.38 1029.02 1028.62 1028.21 1027.81 1027.45 1027.16 1026.93 1026.77 1026.65 1026.56 1026.47 1026.37 1026.24 1026.07 1025.89 1025.68 1025.47 1025.27 1025.08 1024.90 1024.73 1024.56 1024.39 1024.20 1024.00
1029.51 1030.00 1030.38 1030.63 1030.76 1030.77 1030.70 1030.58 1030.42 1030.27 1030.14 1030.02 1029.92 1029.81 1029.67 1029.48 1029.21 1028.88 1028.47 1028.03 1027.57 1027.14 1026.74 1026.41 1026.16 1025.98 1025.85 1025.77 1025.69 1025.61 1025.52 1025.40 1025.26 1025.10 1024.94 1024.77 1024.61 1024.45 1024.29 1024.13 1023.96 1023.78 1023.59
1029.66 1030.14 1030.48 1030.69 1030.77 1030.74 1030.62 1030.44 1030.24 1030.05 1029.87 1029.72 1029.58 1029.43 1029.24 1029.01 1028.70 1028.33 1027.90 1027.43 1026.95 1026.50 1026.09 1025.75 1025.49 1025.30 1025.18 1025.10 1025.04 1024.98 1024.92 1024.83 1024.72 1024.60 1024.46 1024.32 1024.17 1024.02 1023.86 1023.70 1023.53 1023.35 1023.16
1029.86 1030.30 1030.60 1030.75 1030.77 1030.67 1030.49 1030.26 1030.02 1029.78 1029.56 1029.36 1029.18 1028.99 1028.77 1028.50 1028.17 1027.77 1027.33 1026.86 1026.39 1025.94 1025.54 1025.22 1024.97 1024.80 1024.69 1024.62 1024.57 1024.53 1024.48 1024.41 1024.31 1024.20 1024.07 1023.93 1023.79 1023.64 1023.48 1023.31 1023.13 1022.94 1022.75
Thickness
5591 5593 5593 5594 5595 5596 5597 5598 5599 5601 5603 5605 5606 5607 5609 5610 5612 5613 5615 5617 5619 5621 5623 5625 5626 5627 5628 5629 5629 5629 5630 5630 5631 5632 5632 5634 5634 5635 5636 5637 5637 5637 5637
5582 5583 5584 5585 5586 5587 5588 5589 5590 5591 5593 5595 5596 5598 5600 5601 5603 5604 5606 5608 5610 5611 5614 5615 5616 5618 5619 5620 5621 5622 5622 5622 5623 5624 5625 5626 5627 5628 5630 5630 5631 5631 5632
5573 5573 5574 5575 5576 5577 5578 5579 5580 5582 5583 5585 5586 5588 5590 5591 5593 5594 5596 5598 5599 5601 5603 5605 5606 5608 5609 5611 5612 5613 5614 5614 5615 5616 5617 5618 5620 5621 5622 5623 5624 5625 5626
5562 5563 5564 5565 5566 5567 5568 5569 5569 5570 5571 5573 5575 5577 5579 5580 5582 5584 5585 5587 5588 5590 5591 5593 5595 5597 5598 5600 5602 5603 5605 5606 5607 5607 5608 5610 5611 5613 5614 5616 5617 5618 5619
5552 5552 5553 5553 5554 5556 5556 5557 5557 5558 5559 5561 5563 5565 5567 5569 5571 5572 5574 5575 5576 5578 5580 5581 5583 5584 5586 5588 5590 5592 5594 5595 5597 5598 5599 5600 5602 5604 5605 5607 5609 5610 5612
5540 5541 5541 5541 5542 5543 5544 5544 5544 5545 5546 5548 5551 5553 5555 5557 5559 5560 5561 5562 5564 5565 5567 5568 5570 5571 5573 5575 5577 5579 5582 5584 5586 5588 5590 5591 5592 5594 5596 5598 5601 5602 5604
5528 5528 5528 5529 5529 5530 5530 5531 5531 5532 5532 5534 5536 5538 5542 5544 5546 5547 5548 5549 5550 5552 5553 5555 5556 5557 5559 5560 5563 5566 5568 5571 5574 5577 5579 5581 5582 5584 5587 5589 5591 5594 5596
5514 5515 5515 5515 5516 5516 5516 5517 5517 5517 5518 5519 5519 5521 5524 5529 5532 5535 5535 5536 5537 5538 5539 5540 5542 5543 5544 5546 5548 5551 5554 5557 5561 5564 5567 5569 5571 5574 5577 5580 5582 5584 5587
5501 5501 5501 5501 5502 5502 5502 5502 5502 5503 5503 5503 5504 5505 5506 5510 5513 5519 5521 5522 5522 5523 5524 5525 5527 5528 5529 5531 5533 5536 5539 5542 5546 5550 5554 5557 5560 5563 5567 5570 5572 5575 5578
5487 5488 5488 5488 5488 5488 5488 5488 5487 5487 5488 5489 5489 5490 5490 5491 5492 5499 5504 5506 5507 5508 5509 5510 5511 5512 5513 5515 5517 5520 5523 5527 5531 5535 5539 5543 5548 5552 5555 5558 5562 5565 5568
5474 5474 5474 5474 5474 5473 5473 5473 5472 5472 5473 5473 5474 5474 5475 5475 5476 5478 5485 5489 5491 5492 5493 5494 5495 5497 5498 5500 5502 5505 5508 5511 5516 5520 5525 5530 5534 5539 5543 5546 5550 5554 5557
5460 5461 5461 5460 5460 5459 5459 5459 5458 5458 5457 5458 5458 5459 5460 5460 5461 5462 5466 5470 5474 5477 5478 5479 5480 5482 5483 5485 5488 5490 5493 5497 5501 5505 5511 5516 5521 5525 5529 5534 5538 5542 5545
5446 5447 5447 5447 5446 5446 5445 5445 5444 5443 5443 5442 5443 5443 5444 5445 5446 5446 5448 5452 5456 5460 5463 5464 5465 5467 5469 5471 5473 5476 5479 5483 5487 5492 5497 5502 5506 5511 5515 5520 5524 5529 5532
5434 5434 5434 5434 5433 5432 5431 5431 5430 5429 5429 5428 5428 5428 5429 5430 5430 5431 5432 5434 5438 5443 5446 5450 5452 5453 5455 5457 5460 5463 5465 5469 5473 5478 5482 5487 5492 5496 5501 5506 5510 5515 5519
5422 5422 5421 5421 5420 5419 5418 5417 5416 5415 5415 5414 5414 5413 5414 5415 5416 5416 5417 5417 5419 5425 5432 5435 5436 5440 5441 5444 5447 5450 5453 5456 5459 5463 5468 5472 5477 5482 5487 5492 5496 5502 5506
5410 5409 5409 5408 5407 5406 5405 5404 5403 5402 5401 5401 5400 5400 5400 5401 5401 5402 5402 5403 5403 5405 5413 5420 5421 5424 5427 5430 5433 5436 5439 5442 5446 5450 5453 5458 5462 5467 5472 5477 5483 5487 5492
5398 5397 5396 5395 5394 5393 5392 5390 5390 5389 5388 5388 5387 5387 5387 5387 5387 5388 5388 5389 5389 5391 5396 5405 5406 5410 5413 5416 5420 5423 5426 5429 5433 5436 5440 5444 5448 5453 5458 5463 5468 5473 5479
5386 5385 5384 5383 5381 5380 5379 5377 5377 5376 5375 5375 5374 5374 5374 5374 5374 5374 5375 5375 5377 5379 5382 5389 5393 5395 5399 5402 5407 5410 5412 5416 5419 5422 5426 5430 5435 5440 5445 5450 5455 5460 5465
5374 5372 5371 5370 5369 5368 5367 5365 5364 5364 5363 5363 5362 5362 5362 5361 5361 5361 5362 5363 5365 5368 5370 5374 5380 5382 5386 5389 5393 5396 5399 5402 5405 5408 5412 5416 5421 5426 5431 5436 5441 5446 5451
5361 5360 5358 5357 5357 5356 5355 5354 5353 5352 5352 5352 5351 5350 5350 5350 5350 5350 5351 5352 5353 5355 5357 5361 5366 5370 5373 5376 5378 5382 5387 5390 5392 5395 5399 5403 5407 5412 5417 5422 5428 5434 5439
5349 5347 5346 5345 5345 5344 5343 5342 5342 5342 5342 5341 5340 5339 5339 5339 5339 5339 5340 5341 5342 5343 5345 5349 5354 5357 5360 5362 5365 5368 5373 5377 5380 5382 5386 5391 5395 5400 5405 5410 5415 5421 5427
5336 5334 5333 5333 5332 5332 5332 5333 5333 5332 5331 5330 5329 5328 5328 5328 5327 5328 5329 5330 5331 5332 5334 5337 5341 5345 5349 5350 5353 5356 5359 5363 5369 5373 5373 5379 5382 5388 5393 5398 5404 5410 5415
5324 5322 5322 5321 5320 5320 5321 5322 5322 5321 5319 5318 5317 5317 5317 5316 5316 5316 5317 5319 5320 5321 5324 5326 5329 5333 5337 5340 5342 5345 5348 5352 5356 5359 5360 5368 5371 5377 5384 5388 5394 5399 5404
5312 5311 5310 5309 5308 5308 5310 5311 5312 5310 5308 5307 5306 5306 5305 5305 5305 5306 5307 5309 5310 5311 5313 5316 5319 5323 5326 5328 5330 5335 5338 5342 5345 5348 5349 5355 5361 5367 5373 5378 5383 5388 5394
5300 5299 5298 5298 5297 5297 5298 5300 5300 5298 5297 5297 5296 5295 5295 5295 5296 5297 5298 5299 5300 5301 5303 5305 5309 5312 5316 5319 5320 5323 5326 5328 5334 5339 5339 5342 5350 5355 5362 5369 5373 5377 5382
5289 5288 5287 5286 5285 5286 5287 5288 5288 5287 5286 5286 5286 5286 5286 5286 5287 5288 5288 5288 5290 5291 5292 5295 5298 5301 5305 5308 5310 5311 5314 5317 5322 5327 5331 5331 5336 5340 5349 5359 5363 5367 5371